Regional Weather Roundup
Issued by NWS

Home | Current Version | Previous Version | Text Only | Print | Product List | Glossary On
Versions: 1 2 3 4 5 6 7 8 9 10 11 12 13 14 15 16 17 18 19 20 21 22 23 24 25 26 27 28 29 30 31 32 33 34 35 36 37 38 39 40 41 42 43 44 45 46 47 48 49 50
000
ASUS43 KLOT 230409
RWRIL

ILLINOIS REGIONAL WEATHER ROUNDUP
NATIONAL WEATHER SERVICE CHICAGO/ROMEOVILLE IL
1100 PM CDT SAT JUL 22 2017

NOTE: "FAIR" INDICATES FEW OR NO CLOUDS BELOW 12,000 FEET WITH NO
SIGNIFICANT WEATHER AND/OR OBSTRUCTIONS TO VISIBILITY.

* THESE STATIONS ARE NOT UNDER NWS QUALITY CONTROL. THEY ALSO MAY NOT
  REPORT WEATHER SUCH AS PRECIPITATION OR FOG.

ILZ001-002-007-009-015-016-024-230500-
NORTHWEST ILLINOIS

CITY           SKY/WX    TMP DP  RH WIND       PRES   REMARKS
MOLINE         CLEAR     76  73  91 S3        29.82R
STERLING*      CLOUDY    75  74  96 CALM      29.82F
SAVANNA*       PTCLDY    74  73  99 CALM      29.82F FOG
$$

ILZ003-004-008-010-011-017-018-230500-
NORTH CENTRAL ILLINOIS

CITY           SKY/WX    TMP DP  RH WIND       PRES   REMARKS
ROCKFORD       MOCLDY    77  73  87 CALM      29.83S
FREEPORT*      PTCLDY    74  73  95 CALM      29.84S
ROCHELLE*      PTCLDY    74  73  97 CALM      29.83F
DE KALB*       CLOUDY    75  73  93 CALM      29.84S
PERU*          PTCLDY   N/A N/A N/A CALM      29.82F
$$

ILZ005-006-012>014-019>023-230500-
NORTHEAST ILLINOIS

CITY           SKY/WX    TMP DP  RH WIND       PRES   REMARKS
CHICAGO-OHARE  PTCLDY    75  68  78 E5        29.81F
CHICAGO-MIDWAY PTCLDY    77  69  76 E6        29.82S
AURORA         MOCLDY    76  75  97 CALM      29.82F
LANSING*       CLEAR     75  67  78 CALM      29.82S
JOLIET*        PTCLDY    80  76  88 CALM      29.82S HX  84
WAUKEGAN       CLEAR     70  70 100 CALM      29.81F FOG
DUPAGE AIRPORT PTCLDY    75  72  90 CALM      29.81F
WHEELING       PTCLDY    74  72  93 CALM      29.83F
MORRIS*        CLOUDY    76  74  93 CALM      29.80F
ROMEOVILLE*    PTCLDY    76  70  83 E5        29.82S
NORTHERLY ISL    N/A     73  69  87 CALM        N/A
$$

LMZ740>746-230500-
SOUTHERN LAKE MICHIGAN

STATION/POSITION SKY/WX   TEMP    WIND        PRES    VSBY  WAVE
                          AIR SEA DIR/SP/G                  HT/PER
                          (F)     (DEG/KT/KT) (MB)    (MI)  (FT/S)
SOUTHERN BUOY              70 70  120/  4/  4 1009.2F         0
WILMETTE HARBOR            73 74   CALM  /  2   N/A           0
HARRISON CRIB              74     100/  2/  2   N/A
BURNHAM HARBOR             73                   N/A
CALUMET HARBOR             74      70/  4/  5 1009.4F
BURNS HARBOR               74      80/  4/  5 1010.2F
MICHIGAN CITY              73      60/  4/  4   N/A
MICHIGAN CITY 6N           74 75   90/  4/  4   N/A           1
ST. JOSEPH                 74 76   20/  2/  2 1009.4          0
$$

ILZ025>027-034>036-040-047-049-050-058-095>099-230500-
WEST-CENTRAL ILLINOIS

CITY           SKY/WX    TMP DP  RH WIND       PRES   REMARKS
QUINCY         CLOUDY    82  79  90 N8        29.81F HX  92
GALESBURG*     MOCLDY    76  75  98 CALM      29.84S
MACOMB*        MOCLDY    79  76  92 N5        29.84F HX  82
JACKSONVILLE*  CLEAR     80  78  94 CALM      29.80F HX  85
PITTSFIELD*    CLEAR     82  78  89 CALM      29.81F HX  91
$$

ILZ028>032-037-038-041>044-048-051>054-059>061-230500-
CENTRAL ILLINOIS

CITY           SKY/WX    TMP DP  RH WIND       PRES   REMARKS
PONTIAC        MOCLDY    76  76  98 CALM      29.83S
BLOOMINGTON    PTCLDY    77  74  90 N5        29.83F
DECATUR        CLEAR     80  77  90 E5        29.81R HX  87
PEORIA         MOCLDY    81  77  88 CALM      29.82S HX  88
LACON*         PTCLDY    76  75  99 CALM      29.81F
LINCOLN*       CLEAR     79  78  97 NE3       29.81S HX  83
SPRINGFIELD    CLEAR     82  80  94 N6        29.80S HX  94
TAYLORVILLE    CLOUDY    80  78  94 N3        29.80S HX  85
$$

ILZ033-039-045-046-055>057-062-063-230500-
EAST-CENTRAL ILLINOIS

CITY           SKY/WX    TMP DP  RH WIND       PRES   REMARKS
CHAMPAIGN      PTCLDY    79  76  90 E5        29.81F HX  83
RANTOUL*       MOCLDY    79  78  95 E3        29.82S HX  83
MATTOON        CLOUDY    80  80 100 SE8       29.79S HX  89
$$

ILZ079-100>102-230500-
SOUTHWEST ILLINOIS

CITY           SKY/WX    TMP DP  RH WIND       PRES   REMARKS
ALTON          CLOUDY    83  79  87 CALM      29.79F HX  95
CAHOKIA*       TSTM      83  73  72 W10G22    29.82R HX  89
SPARTA*        CLEAR     86  74  67 SW10      29.83R HX  94
$$

ILZ064>066-069>071-074>076-080>082-084>086-088>090-092>094-230500-
SOUTH-CENTRAL ILLINOIS

CITY           SKY/WX    TMP DP  RH WIND       PRES   REMARKS
CARBONDALE     CLEAR     86  76  71 SW14G22   29.83S HX  96
CAIRO*         CLEAR     85  75  72 SW8       29.86S HX  94
EFFINGHAM*     PTCLDY    84  76  76 CALM      29.81R HX  92
MARION         CLEAR     86  75  70 SW10      29.84S HX  95
MT. VERNON     CLEAR     86  76  71 SW12      29.81S HX  96
CENTRALIA*     PTCLDY    87  77  73 SW13G18   29.79F HX  98
SALEM*         MOCLDY    88  75  65 SW12G17   29.80S HX  97
METROPOLIS*    CLEAR     84  76  78 SW6       29.87S HX  92
$$

ILZ067-068-072-073-078-083-087-091-230500-
SOUTHEAST ILLINOIS

CITY           SKY/WX    TMP DP  RH WIND       PRES   REMARKS
LAWRENCEVILLE  CLEAR     85  74  69 SW10      29.81R HX  92
FLORA*         CLEAR     83  74  74 S6        29.81R HX  90
FAIRFIELD*     CLEAR     82  75  79 S3        29.80S HX  88
HARRISBURG*    CLEAR     84  76  78 SW9       29.84S HX  92
ROBINSON*      CLOUDY    79  76  90 NE18G24   29.84R THUNDER HX  82
CARMI*         MOCLDY    83  76  79 S9        29.82S HX  91
$$

ABBREVIATIONS USED IN REMARKS
   TC - TEMPERATURE IN CELSIUS
  WCI - WIND CHILL INDEX
   HX - HEAT INDEX
  VSB - VISIBILITY
$$





USA.gov is the U.S. government's official web portal to all federal, state and local government web resources and services.